Theta_e
328 322 317 313 305 302 297 300 304 306 307 313 315 314 312 314 311 306 330 336 337 338 344 346 346 348 349 347 346 346 345 344 344 342 341 339 338 339 340 339 340 340 338 338 336 336 337 338 336
322 319 316 306 300 296 297 301 304 307 313 317 316 316 314 311 322 325 330 336 339 341 345 345 344 347 347 345 345 346 344 344 344 343 341 340 337 337 337 336 337 336 337 338 335 334 335 339 336
321 316 310 300 296 296 298 303 306 310 316 312 315 318 317 315 324 327 332 338 341 342 344 344 344 347 347 345 345 345 344 344 346 344 339 339 337 337 337 337 337 336 338 336 336 335 335 337 335
314 314 309 298 297 300 302 304 309 309 311 313 315 311 319 326 326 330 336 339 339 342 344 343 345 347 346 345 344 343 343 343 344 343 341 339 337 336 338 337 336 335 336 335 336 336 336 335 333
311 308 301 299 300 302 302 308 309 308 308 312 314 311 315 326 329 334 337 338 338 340 343 344 344 345 345 345 344 342 342 342 339 343 342 340 338 337 335 335 334 335 334 335 335 334 335 335 334
301 304 298 296 301 305 305 309 309 308 308 310 313 313 315 326 330 332 336 336 338 339 342 344 337 340 342 342 343 342 340 340 339 340 342 341 338 337 336 335 335 333 333 334 334 335 334 333 332
303 297 296 298 300 302 304 308 308 308 309 309 314 309 316 323 328 332 334 336 337 339 340 342 342 339 335 338 338 339 339 338 338 339 342 340 339 338 337 336 336 334 333 334 334 333 332 332 331
305 301 298 298 299 300 305 306 308 308 308 315 317 307 309 322 327 331 333 333 335 337 338 339 341 340 340 340 332 334 336 335 334 333 333 333 333 334 334 332 334 335 333 333 333 332 331 330 328
308 295 292 296 298 302 308 304 307 310 310 312 317 315 319 324 328 328 327 328 330 333 336 338 338 338 338 338 333 330 330 330 330 329 326 327 333 332 331 328 331 334 334 333 332 331 330 329 326
302 292 292 299 302 304 306 305 308 307 308 311 314 322 323 323 325 325 323 324 326 328 330 334 335 337 337 336 335 335 334 333 331 330 330 329 330 330 329 325 327 331 331 332 332 331 330 325 323
302 293 296 301 305 306 305 305 309 304 303 308 310 313 320 320 321 324 324 326 326 328 329 331 333 334 336 336 334 333 333 332 330 329 328 328 327 326 327 327 329 330 325 330 331 330 329 325 323
299 303 300 304 306 304 302 306 303 305 306 310 311 314 320 320 320 320 322 324 325 327 328 331 333 332 335 335 333 332 331 330 329 328 327 326 326 325 324 323 326 325 328 328 328 327 327 325 323
299 300 304 305 303 303 304 302 302 304 309 310 315 313 318 320 321 322 323 323 323 324 327 329 331 332 332 333 333 332 330 329 329 328 327 326 325 324 325 325 325 323 326 325 324 323 323 321 320
297 300 299 301 302 302 301 301 302 304 306 308 313 314 316 319 321 321 322 323 323 324 325 328 329 331 332 332 332 332 331 330 329 328 326 325 325 324 323 324 324 324 324 324 323 321 320 320 319
299 293 296 297 300 300 302 294 298 305 307 306 308 310 313 317 319 321 323 323 325 326 326 325 327 330 330 331 332 331 331 331 329 328 327 326 324 323 321 321 321 322 323 323 322 321 320 319 319
295 292 285 290 298 300 297 287 297 302 303 303 304 305 306 308 315 319 322 323 324 325 325 325 325 327 330 331 331 331 331 330 329 328 329 327 326 325 322 321 321 322 321 321 320 320 318 317 317
289 280 285 287 297 297 297 291 297 300 301 301 301 302 302 303 305 307 311 316 321 324 325 325 325 324 327 330 331 331 331 329 329 328 327 328 327 326 325 323 324 323 321 320 319 318 317 317 317
283 285 286 284 289 294 293 294 296 299 297 298 300 300 300 301 303 306 307 308 312 320 323 324 325 325 324 327 329 330 329 329 329 328 327 328 328 327 326 326 325 323 322 321 319 319 318 318 318
286 287 285 288 293 293 291 292 297 298 297 297 298 298 298 300 303 304 305 307 308 310 318 321 322 324 323 321 323 324 323 325 326 327 328 328 328 327 327 327 326 323 322 322 321 320 318 318 316
288 287 286 289 293 292 289 289 293 295 295 298 298 297 298 299 301 303 304 305 306 307 312 318 321 323 323 323 323 324 325 326 327 328 327 327 327 327 327 327 326 324 322 322 322 320 318 317 316
290 286 286 285 290 290 288 285 288 291 293 294 296 298 298 299 300 301 302 303 305 305 307 313 318 322 323 323 323 321 320 319 322 324 325 325 326 326 326 327 327 326 323 323 322 321 319 318 315
284 291 289 288 286 281 286 278 282 283 286 292 294 295 296 297 299 300 302 304 305 305 306 307 311 317 321 322 321 319 319 318 321 322 324 325 324 325 326 326 326 326 324 323 324 322 321 320 318
287 293 291 289 286 286 284 281 282 285 285 288 292 294 296 297 299 301 302 303 303 304 303 304 305 309 317 319 320 320 318 320 321 320 320 322 322 323 324 324 325 324 325 324 323 323 320 321 319
294 291 290 288 286 280 282 282 282 284 285 289 293 294 295 297 298 299 300 300 300 302 304 305 305 307 311 317 317 318 318 318 318 317 317 318 319 319 321 322 323 324 324 323 323 322 322 319 320
291 286 278 278 278 276 282 281 284 285 288 290 292 295 297 296 296 296 297 298 299 298 299 303 305 304 311 316 317 316 317 317 317 317 317 317 317 317 318 319 320 321 322 322 323 322 321 320 318
289 286 277 271 273 277 282 279 284 290 292 293 294 294 295 295 296 297 298 296 296 297 298 299 300 300 301 303 309 317 316 317 317 318 318 318 318 319 320 319 320 320 320 321 321 321 321 320 319
289 285 287 279 273 274 279 282 288 290 289 291 292 294 293 294 295 294 294 295 295 295 296 296 297 298 298 299 300 301 303 309 316 318 319 320 320 320 320 319 319 319 320 320 320 319 319 319 319
291 292 283 283 272 272 276 278 282 285 287 289 290 291 292 291 291 292 293 293 294 294 294 295 295 295 296 297 298 298 299 300 302 305 309 313 318 320 320 320 319 319 319 319 319 319 319 318 318
288 286 287 286 282 276 272 278 285 287 288 290 290 291 290 290 291 291 291 292 292 293 293 293 294 294 294 295 296 296 297 298 299 299 300 301 304 307 312 318 320 319 319 319 318 318 317 316 317
291 288 288 282 279 282 278 280 287 288 288 290 291 289 289 290 290 291 291 292 292 292 292 292 292 293 293 294 294 295 295 295 295 296 297 298 299 302 304 306 310 316 319 320 318 318 318 316 316
Wind_Speed
10 6 2 5 5 5 1 1 1 3 2 1 2 3 3 2 2 1 2 5 4 9 9 9 10 13 13 12 12 12 11 13 15 14 13 12 12 13 14 12 14 11 14 14 14 14 12 16 13
6 5 5 3 6 3 3 2 3 3 4 6 3 2 1 1 1 2 5 4 7 9 7 11 10 11 11 12 10 10 11 12 14 16 14 12 12 13 14 13 12 12 12 14 13 12 12 13 13
4 4 4 5 3 3 2 3 2 1 4 1 3 2 3 2 1 5 1 9 8 7 6 8 12 11 10 10 9 9 9 7 14 17 14 13 13 13 13 13 12 12 11 11 12 11 12 13 12
6 5 4 5 3 2 2 1 3 3 1 2 1 3 1 1 2 5 8 11 10 7 6 7 9 11 12 11 9 8 9 6 6 12 15 14 12 12 11 12 12 12 11 12 11 10 11 12 10
5 3 4 4 0 2 3 1 5 3 1 1 0 1 1 0 1 7 11 10 11 9 7 7 9 9 9 11 11 8 7 5 1 7 14 14 12 11 11 12 11 11 12 11 10 10 9 9 8
5 3 4 3 2 2 1 2 4 2 2 1 1 3 2 1 4 7 10 10 9 10 8 8 7 8 9 8 9 11 7 3 3 3 10 15 13 11 11 10 10 11 10 10 10 9 8 8 7
6 4 2 4 3 1 3 2 3 4 2 2 3 2 2 3 3 8 9 8 7 8 7 7 7 6 6 7 7 7 9 8 3 2 9 11 12 11 7 8 8 10 10 9 9 8 7 7 6
5 5 1 3 4 4 2 2 1 4 3 2 1 1 1 2 7 7 6 6 7 6 7 7 6 7 6 5 6 6 6 6 5 4 2 7 7 10 9 6 6 7 7 8 7 7 6 5 4
3 5 3 4 5 2 2 3 1 1 4 2 2 1 2 6 9 7 6 5 5 6 8 7 7 6 6 6 5 5 5 5 6 4 6 6 4 5 8 7 5 4 5 6 6 5 4 2 2
4 5 11 5 4 2 1 1 2 1 1 2 2 1 2 8 8 10 9 9 9 9 9 9 10 9 7 5 6 6 5 4 4 3 4 3 5 4 4 4 7 7 6 5 5 5 4 2 2
4 7 6 5 4 1 1 2 1 2 2 5 5 4 4 5 8 9 9 9 11 11 7 10 9 9 9 7 5 3 4 4 4 5 5 4 4 3 2 2 3 3 4 3 3 3 3 4 3
3 4 6 2 3 3 2 2 2 4 3 1 3 2 5 9 10 11 10 10 9 10 11 10 10 9 9 6 6 6 5 5 5 6 6 4 3 4 4 3 4 4 3 5 4 3 4 5 5
3 3 6 3 2 3 2 4 5 5 6 4 3 4 5 6 7 6 7 7 8 9 10 11 10 10 10 8 6 6 7 6 7 7 8 7 6 6 5 5 5 5 4 5 5 5 5 6 6
4 4 2 1 3 3 4 5 5 7 2 8 6 6 4 7 8 4 7 10 11 11 12 11 12 12 11 10 9 6 6 7 7 7 8 10 8 7 6 6 6 6 6 6 5 5 5 6 5
3 3 3 4 3 4 5 8 10 9 5 8 9 7 6 7 5 11 10 10 11 11 9 12 12 12 12 13 11 8 7 7 7 8 10 11 10 9 8 7 7 7 6 7 5 6 6 6 6
5 4 3 4 7 6 8 11 4 9 7 10 9 8 6 8 7 8 10 11 8 9 10 9 9 11 13 12 11 10 7 7 7 7 9 12 12 11 8 7 7 7 6 6 6 6 7 7 7
5 4 5 6 8 3 6 8 7 6 8 9 9 8 7 8 8 10 12 9 10 10 10 10 11 12 13 12 10 11 12 9 8 8 9 12 12 12 11 9 8 9 7 7 7 7 7 7 8
8 5 5 5 4 3 4 16 6 1 7 10 11 6 7 8 12 10 10 8 8 8 7 9 9 12 11 8 8 8 8 9 10 10 11 14 11 14 12 9 10 9 8 8 7 9 7 8 8
5 5 6 3 3 4 8 11 18 8 6 10 12 10 10 12 10 10 10 10 8 6 8 10 8 11 8 6 7 9 11 11 9 11 14 13 13 13 13 9 10 9 10 11 11 9 10 8 6
2 4 4 3 3 5 2 11 17 11 10 17 17 12 13 11 10 12 9 7 8 9 7 8 10 7 9 8 6 6 6 8 10 9 12 14 14 13 12 12 11 12 11 11 11 11 6 6 7
13 6 3 2 2 2 5 11 8 9 6 8 11 14 10 15 13 11 9 7 5 8 8 5 8 9 10 12 7 3 1 0 4 8 9 11 14 14 15 15 13 12 11 10 13 12 13 10 7
13 10 6 3 4 5 2 14 8 4 7 5 9 9 12 10 10 10 7 8 5 4 4 6 7 9 10 10 9 12 10 10 9 9 7 8 13 14 14 14 13 13 10 12 12 10 13 11 11
6 9 13 7 5 2 6 4 4 2 5 5 7 9 9 10 10 10 8 5 6 4 5 5 6 7 7 7 11 9 11 9 8 4 7 8 8 12 12 13 13 13 11 12 13 11 13 11 11
7 7 5 3 5 9 9 10 22 11 9 6 6 8 8 8 7 7 5 4 5 5 4 3 4 5 5 7 10 12 12 10 7 5 5 5 6 7 12 13 12 13 12 13 13 14 15 14 12
7 8 4 5 7 12 10 7 26 4 4 4 9 9 7 7 5 4 4 2 3 5 5 4 5 5 5 2 6 9 11 10 10 9 6 7 6 6 10 13 13 12 14 14 13 13 14 14 14
18 14 7 10 8 7 7 13 15 6 13 14 9 9 5 4 3 4 4 5 5 5 5 5 5 6 6 6 6 2 6 5 6 7 7 6 7 8 10 11 12 13 14 13 13 11 12 13 13
11 16 12 4 2 2 6 8 10 7 7 6 11 13 3 1 3 6 5 5 6 5 5 5 5 6 8 8 7 7 7 7 5 7 6 6 7 7 9 11 12 13 14 14 14 11 13 13 13
14 13 10 9 8 10 6 5 13 1 8 8 7 8 5 6 7 6 5 5 4 5 4 5 6 7 7 8 8 6 7 7 7 7 8 8 8 8 9 10 11 12 13 13 14 12 12 14 12
7 11 5 4 7 8 3 10 8 13 9 8 9 9 8 8 7 6 5 4 5 4 4 5 6 7 7 7 8 8 8 8 6 6 8 8 9 9 9 10 11 12 13 13 14 15 15 15 15
25 19 18 9 13 7 1 12 3 8 8 7 8 8 7 7 6 7 7 6 5 5 5 6 6 7 7 6 5 7 8 9 9 8 9 10 10 10 10 10 11 11 12 13 14 15 13 16 17
Wind_Direction
323 334 61 42 55 64 2 259 195 154 165 259 89 138 178 97 174 207 338 175 171 148 152 149 153 153 138 135 136 137 136 131 130 124 124 127 120 120 125 107 112 117 118 111 106 99 96 111 101
319 354 44 77 79 54 293 264 222 188 148 130 103 108 73 125 189 114 123 196 160 149 156 147 148 143 136 135 137 138 139 147 152 129 125 127 128 127 127 124 122 124 117 114 112 97 95 116 103
24 28 71 81 103 144 213 204 195 355 141 139 112 26 143 158 190 174 205 150 142 145 145 154 145 139 134 134 136 143 144 150 151 133 132 129 135 132 134 129 129 132 129 127 117 102 105 101 103
11 12 47 78 114 212 228 104 155 113 243 207 143 100 256 214 176 175 147 146 143 146 142 150 147 146 143 140 139 147 148 161 155 140 143 137 139 140 137 137 139 139 138 134 127 113 105 111 106
32 50 57 81 238 266 260 189 156 150 297 308 44 136 142 194 38 137 150 150 150 157 151 160 155 150 147 143 144 146 159 149 79 135 140 144 146 143 147 150 149 146 151 143 138 128 121 118 116
39 74 62 154 215 291 312 171 160 158 164 254 101 136 190 286 146 157 151 156 159 160 161 163 166 155 152 150 148 149 147 156 207 197 152 147 148 155 155 154 156 157 156 153 151 142 137 131 124
104 76 219 170 196 181 174 204 199 166 158 234 141 140 148 194 187 156 153 151 160 161 167 170 168 171 158 153 159 160 153 164 213 177 155 155 155 153 156 161 161 166 163 160 157 157 159 152 144
104 94 100 271 201 205 173 206 174 163 200 115 186 197 124 174 150 136 136 148 160 171 179 181 178 171 172 174 170 168 171 177 161 106 106 163 148 146 146 147 181 173 172 165 167 172 174 169 153
132 78 177 244 161 230 356 164 256 320 129 178 194 174 127 129 133 126 145 160 174 187 188 186 185 185 180 177 180 181 193 182 171 138 103 112 135 144 158 158 183 175 173 184 181 185 186 163 102
99 132 205 197 193 180 356 46 331 125 147 226 173 182 90 142 160 165 179 190 196 201 206 202 196 191 184 189 179 184 183 191 189 187 166 160 146 152 166 179 188 185 185 194 202 203 197 178 234
175 189 191 214 168 177 188 125 324 99 257 236 199 174 154 165 174 192 196 197 207 212 213 206 205 203 192 190 184 194 189 181 195 200 200 187 169 170 173 193 187 207 198 210 223 231 219 222 230
182 228 165 214 172 150 182 312 346 185 221 117 276 216 163 181 195 203 208 206 194 206 218 210 204 201 200 203 194 191 194 200 197 192 202 204 202 200 193 203 207 221 213 216 221 222 229 240 243
185 272 163 221 230 264 360 239 226 251 233 268 291 201 207 206 207 214 218 219 215 221 216 213 200 204 203 200 197 196 205 200 206 207 200 192 207 219 215 220 205 213 216 225 227 237 240 241 242
209 225 330 96 202 234 204 258 151 254 258 215 215 237 229 224 219 218 220 226 218 223 218 208 205 204 201 207 205 200 198 210 213 210 209 209 206 206 214 225 234 236 219 219 226 232 244 254 256
126 145 332 251 192 250 169 277 224 204 172 218 221 232 244 238 233 229 234 232 226 225 222 208 207 199 198 211 216 211 195 192 204 220 216 213 211 213 206 210 219 227 232 246 248 248 248 251 251
135 109 150 252 189 238 118 260 271 204 200 227 237 252 249 260 239 248 245 244 237 233 219 210 204 202 205 205 211 216 205 198 205 212 216 213 214 216 215 220 222 220 223 223 229 240 253 260 260
13 179 196 295 207 141 175 272 247 212 202 236 238 238 254 270 271 259 252 242 249 236 230 217 203 207 210 212 205 213 215 214 213 211 217 215 212 210 213 217 224 220 221 221 224 232 229 249 257
177 208 220 207 224 221 215 255 223 225 189 234 253 240 226 242 253 258 254 253 251 244 229 221 211 215 210 208 210 218 218 219 219 217 220 215 209 207 211 222 222 209 218 225 221 230 224 236 251
151 170 189 181 244 182 227 250 256 230 232 251 246 249 255 249 254 247 251 247 246 230 234 227 211 217 192 187 198 223 225 223 222 225 223 213 214 209 211 219 221 212 219 224 221 226 235 238 227
161 188 222 263 230 193 233 257 266 233 224 223 240 240 240 248 263 260 247 244 235 244 231 220 223 207 204 207 204 204 197 221 221 220 218 215 214 211 213 217 221 216 222 225 221 215 223 239 187
222 196 144 167 9 180 298 270 215 261 205 206 225 233 235 238 242 256 263 245 248 240 244 236 231 226 215 218 213 202 154 199 206 221 219 217 214 212 212 217 221 220 216 225 225 218 215 234 200
217 192 147 129 67 243 50 280 209 211 253 226 237 221 235 246 248 251 256 273 242 272 248 253 253 240 231 209 212 209 215 223 226 228 218 215 208 217 219 224 225 225 219 226 224 218 218 216 231
228 150 183 162 180 15 228 281 246 143 268 259 254 251 246 238 242 260 253 277 302 286 259 262 265 256 247 205 212 213 222 232 242 225 216 213 208 214 216 221 225 226 225 229 232 225 217 217 225
138 87 71 100 139 237 228 204 273 236 213 212 223 229 244 252 242 253 288 295 306 341 332 307 272 281 269 222 213 216 222 228 234 230 219 217 209 206 216 220 222 226 228 230 229 228 223 222 226
160 138 151 207 210 238 160 173 248 297 117 189 227 236 241 232 250 273 287 307 86 50 32 40 54 34 5 277 228 220 228 228 228 235 230 224 221 217 220 217 221 224 227 229 229 228 226 223 222
194 182 165 201 204 236 155 221 245 225 221 253 203 245 258 270 238 231 177 131 100 75 44 49 52 47 25 34 26 340 239 241 240 238 236 233 233 232 229 221 227 229 230 231 231 234 232 226 229
183 209 197 113 126 71 208 280 297 223 238 252 215 243 287 334 125 127 119 116 106 77 49 38 40 36 29 22 17 24 24 12 322 291 268 259 253 248 236 228 230 230 231 230 230 232 232 230 230
178 165 188 210 191 220 245 255 237 221 242 237 258 251 171 158 128 129 116 113 85 86 76 64 54 50 30 24 22 22 16 18 6 355 346 326 303 284 269 254 242 240 233 230 232 237 235 232 231
162 190 210 190 200 203 228 241 187 225 221 215 222 220 183 158 155 140 118 100 97 88 66 55 45 42 37 27 13 14 11 7 17 15 353 342 329 324 313 295 271 257 247 236 232 232 232 232 236
199 195 191 196 200 212 231 248 185 228 227 203 203 179 164 164 165 154 151 138 109 83 62 50 38 34 16 3 19 18 7 360 0 7 359 346 338 329 323 316 308 297 273 255 242 244 238 233 234